Weather History for Massena, NY

Change the Weather History Date:

Thursday, March 27, 2014

  Actual Average Record
Temperature  
Mean Temperature 14 °F 33 °F  
Max Temperature 31 °F 43 °F 73 °F (1976)
Min Temperature -3 °F 24 °F -5 °F (1974)
Degree Days  
Heating Degree Days 51 32  
Month to date heating degree days 1306 1023  
Since 1 July heating degree days 7475 7010  
Cooling Degree Days 0 0  
Month to date cooling degree days 0 0  
Year to date cooling degree days 0 0  
Moisture  
Dew Point 5 °F    
Average Humidity 59    
Maximum Humidity 79    
Minimum Humidity 39    
Precipitation  
Precipitation T in 0.07 in 0.33 in (1950)
Month to date precipitation 0.40 1.79  
Year to date precipitation 3.14 5.74  
Sea Level Pressure  
Sea Level Pressure 30.24 in    
Wind  
Wind Speed 7 mph (SSW)    
Max Wind Speed 15 mph    
Max Gust Speed 19 mph    
Visibility 10 miles    
Events      
T = Trace of Precipitation, MM = Missing Value Source: NWS Daily Summary

Daily Weather History Graph

Daily Weather History Graph

Search for Another Location

Airport:

Trip Planner

Search our weather history database for the weather conditions in past years. The results will help you decide how hot, cold, wet, or windy it might be!

Date:

Astronomy

Mar. 27, 2014 Rise Set
Actual Time 6:49 AM EDT 7:20 PM EDT
Civil Twilight 6:20 AM EDT 7:50 PM EDT
Nautical Twilight 5:45 AM EDT 8:25 PM EDT
Astronomical Twilight 5:09 AM EDT 9:01 PM EDT
Moon 4:47 AM EDT (3/27) 3:57 PM EDT (3/27)
Length of Visible Light 13h 30m
Length of Day
12h 31m
Waning Crescent, 13% of the Moon is Illuminated
Mar 27
Waning Crescent
Mar 30
New
Apr 7
First Quarter
Apr 15
Full
Apr 22
Last Quarter

Hourly Weather History & Observations

Time (EDT) Temp. Windchill Dew Point Humidity Pressure Visibility Wind Dir Wind Speed Gust Speed Precip Events Conditions
12:53 AM 1.9 °F -5.6 °F -5.1 °F 72% 30.25 in 10.0 mi WSW 3.5 mph - N/A   Clear
1:53 AM 3.0 °F -4.4 °F -5.1 °F 69% 30.26 in 10.0 mi West 3.5 mph - N/A   Clear
2:53 AM 1.9 °F -7.6 °F -5.1 °F 72% 30.28 in 10.0 mi SW 4.6 mph - N/A   Clear
3:53 AM 1.9 °F -7.6 °F -6.0 °F 69% 30.30 in 10.0 mi WSW 4.6 mph - N/A   Clear
4:53 AM -0.0 °F -9.9 °F -5.1 °F 79% 30.31 in 10.0 mi SSW 4.6 mph - N/A   Clear
5:53 AM -0.9 °F -12.7 °F -8.0 °F 72% 30.31 in 10.0 mi SSW 5.8 mph - N/A   Clear
6:53 AM 1.9 °F -9.2 °F -6.0 °F 69% 30.33 in 10.0 mi SW 5.8 mph - N/A   Clear
7:53 AM 7.0 °F -6.6 °F -0.9 °F 70% 30.36 in 10.0 mi SW 9.2 mph - N/A   Clear
8:53 AM 14.0 °F 3.9 °F 1.9 °F 59% 30.35 in 10.0 mi SSW 6.9 mph - N/A   Partly Cloudy
9:53 AM 18.0 °F 4.8 °F 3.0 °F 52% 30.34 in 10.0 mi SSW 12.7 mph - N/A   Clear
10:53 AM 21.0 °F 8.1 °F 3.0 °F 46% 30.32 in 10.0 mi SSW 13.8 mph - N/A   Clear
11:53 AM 23.0 °F 11.1 °F 3.0 °F 42% 30.31 in 10.0 mi SW 12.7 mph - N/A   Overcast
12:53 PM 24.1 °F 17.0 °F 6.1 °F 46% 30.28 in 10.0 mi SW 5.8 mph - N/A   Mostly Cloudy
1:53 PM 26.1 °F 17.6 °F 8.1 °F 47% 30.27 in 10.0 mi SW 8.1 mph - N/A   Overcast
2:53 PM 27.0 °F 18.7 °F 8.1 °F 45% 30.25 in 10.0 mi SW 8.1 mph - N/A   Overcast
3:53 PM 28.9 °F 22.8 °F 9.0 °F 43% 30.24 in 10.0 mi West 5.8 mph - N/A   Overcast
4:53 PM 30.0 °F 21.1 °F 10.0 °F 43% 30.16 in 10.0 mi SE 10.4 mph - N/A   Overcast
5:53 PM 30.9 °F 26.2 °F 9.0 °F 40% 30.16 in 10.0 mi East 4.6 mph - N/A   Overcast
6:53 PM 28.9 °F 21.9 °F 14.0 °F 54% 30.16 in 10.0 mi NNE 6.9 mph - N/A   Overcast
7:53 PM 28.0 °F 18.6 °F 14.0 °F 56% 30.14 in 10.0 mi NE 10.4 mph - N/A   Overcast
8:53 PM 27.0 °F 16.7 °F 15.1 °F 61% 30.12 in 10.0 mi ENE 11.5 mph - N/A   Overcast
9:53 PM 26.1 °F 21.9 °F 15.1 °F 63% 30.12 in 10.0 mi ENE 3.5 mph - N/A   Overcast
10:53 PM 26.1 °F 19.4 °F 17.1 °F 69% 30.09 in 10.0 mi East 5.8 mph - N/A   Overcast
11:53 PM 26.1 °F 20.5 °F 19.0 °F 75% 30.06 in 10.0 mi NE 4.6 mph - 0.00 in   Overcast